www.pogodaiklimat.ru

Погода и климат >> Архив погоды >> Антарктида >> Оркадас


ПОГОДА на Оркадасе

  • Прогноз погоды на Оркадасе
  • Монитор погоды на Оркадасе

АРХИВ ПОГОДЫ на Оркадасе

Время (UTC), дата Ветер
(напр.,м/с)
 
Видим.   Явления Облачность Т
(С)
Тd
(С)
f
(%)
Тe
(С)
Тes
(С)
Комфортность P
(гПа)
Po
(гПа)
Тmin
(С)
Tmax
(С)
R
(мм)
R24
(мм)
S
(см)
21 12.07 СЗ 5 10 км ясно -12.9 -14.6 87 -21 -21 1015.8 1014.2
00 13.07 С 5 400 м туман ясно -9.5 -10.9 90 -17 -17 1013.8 1012.2 -21.0 -9.5
03 13.07 штиль 0 400 м туман ясно -9.0 -9.9 93 -10 -10 1012.9 1011.3
06 13.07 Ю 2 400 м туман 6/6 180 м
[St]
-12.0 -13.0 92 -17 -17 1012.1 1010.5
09 13.07 С 1 500 м туман 8/8 180 м
[St]
-12.0 -13.0 92 -14 -14 1011.7 1010.1
12 13.07 З 5 500 м туман 10/10 180 м
[St]
-13.0 -13.5 96 -21 -21 1012.1 1010.5 -13.3 -9.0
15 13.07 В 2 800 м туман 6/6 240 м
[St]
-16.0 -16.7 94 -21 -21 1013.3 1011.7
18 13.07 Ю 3 4000 м в посл. час туман туман 3/3 180 м
[St]
-16.8 -17.5 94 -24 -24 1014.0 1012.4
21 13.07 Ю 1 4000 м дымка 3/3 180 м
[St]
-20.8 -20.8 100 -24 -24 1015.6 1014.0
00 14.07 Ю 2 5000 м дымка 8/4 180 м
[St Cs]
-19.2 -20.9 86 -25 -25 1016.3 1014.6 -21.8 -13.0
03 14.07 СЗ 3 800 м туман 8/4 180 м
[St Cs]
-12.5 -13.6 91 -18 -18 1016.4 1014.8
06 14.07 СЗ 1 800 м туман 3/1 180 м
[St Cs]
-19.5 -21.2 86 -23 -23 1016.6 1015.0
09 14.07 Ю 2 800 м туман 3/0
[Cs]
-19.9 -21.7 86 -25 -25 1016.6 1015.0
12 14.07 ЮВ 1 800 м переохл. туман 3/0
[Cs]
-17.0 -18.4 89 -20 -20 1016.5 1014.9 -20.4 -11.0
15 14.07 Ю 2 6000 м в посл. час туман туман ясно -19.2 -20.9 86 -24 -23 1017.1 1015.6
18 14.07 штиль 0 12 км {снег, туман} 4/0
[Cc]
-18.6 -20.2 87 -19 -19 1017.7 1016.1
21 14.07 штиль 0 12 км ясно -18.1 -19.6 88 -18 -18 1019.0 1017.4
00 15.07 штиль 0 10 км ясно -19.8 -22.5 79 -20 -20 1020.1 1018.5 -21.0 -15.0
03 15.07 штиль 0 10 км ясно -21.0 -24.0 77 -21 -21 1021.4 1019.7
06 15.07 штиль 0 800 м туман 3/3 240 м
[St]
-20.8 -23.7 77 -21 -21 1021.9 1020.2
09 15.07 СЗ 2 10 км в посл. час туман ясно -17.0 -19.2 83 -21 -21 1022.1 1020.5
12 15.07 СЗ 2 5000 м дымка {туман} 4/4 180 м
[St]
-15.6 -16.9 90 -20 -20 1022.6 1021.0 -22.4 -14.6
15 15.07 СЗ 3 3000 м дымка ясно -14.4 -15.6 91 -21 -21 1021.9 1020.4
18 15.07 СЗ 3 4000 м дымка 4/0
[Cs]
-14.4 -15.6 91 -21 -21 1020.9 1019.3
21 15.07 СЗ 5 4000 м дымка 4/3 150 м
[St Cs]
-13.6 -14.7 91 -22 -22 1020.7 1019.2
00 16.07 С 5 4000 м дымка 5/3 150 м
[St Cs]
-10.0 -10.9 93 -18 -18 1019.4 1017.8 -16.0 -9.5
03 16.07 С 5 800 м туман 5/0
[Cs]
-9.9 -10.4 96 -18 -18 1018.1 1016.5
06 16.07 С 6 100 м туман 10/10 90 м
[St]
-5.8 -6.2 97 -14 -14 1016.4 1014.8
09 16.07 С 6 600 м туман 10/10 150 м
[St]
-4.0 -4.0 100 -12 -12 1014.3 1012.8
12 16.07 С 5 500 м туман 10/10 180 м
[St]
-2.4 -3.3 94 -9 -9 1012.4 1010.8 -12.0 -2.2
15 16.07 С 6 600 м туман 10/10 150 м
[St]
-1.4 -1.9 96 -8 -8 1009.6 1008.1
18 16.07 0 н/о
21 16.07 С 12 1200 м снежные зёрна {морось} туман 10/10 150 м
[St]
0.0 -0.5 96 -9 -9 1002.6 1001.0
00 17.07 С 11 1000 м дождь {снег} туман 10/10 150 м
[St]
+0.6 0.0 96 -8 -8 999.3 997.8 -2.4 +0.6 0.3
03 17.07 С 14 1000 м дождь туман 10/10 150 м
[St]
+0.6 -0.2 94 -9 -9 995.8 994.2
06 17.07 С 9 1000 м дождь со снегом туман 10/10 150 м
[St]
+0.5 -0.1 96 -8 -8 993.3 991.8 3
09 17.07 С 8 3000 м в посл. час дождь со снегом туман 10/10 150 м
[St]
+0.1 -0.4 96 -8 -8 991.2 989.7
12 17.07 С 8 900 м слаб. морось туман 10/10 180 м
[St]
+0.2 -0.6 94 -8 -8 988.5 987.0 -0.1 +0.7 2
15 17.07 СЗ 12 10 км в посл. час морось 10/10 180 м
[St]
+0.2 -0.6 94 -9 -9 986.2 984.6
18 17.07 С 5 12 км {морось} 9/6 240 м
[St Ac lent Cs]
-0.7 -1.4 95 -7 -7 990.3 988.8 0.3
21 17.07 СЗ 9 4000 м снежные зёрна 10/10 210 м
[St]
0.0 -2.9 81 -8 -8 991.8 990.2
00 18.07 СЗ 6 2000 м снежные зёрна туман 10/10 210 м
[St]
-0.8 -2.1 91 -8 -8 994.8 993.3 -1.5 +0.5 0.4
03 18.07 СЗ 8 10 км в посл. час дождь со снегом 6/4 240 м
[St Ac As]
-0.5 -1.7 92 -8 -8 996.2 994.6
06 18.07 СЗ 8 10 км {снег} 8/5 300 м
[St Ac As]
+1.2 -1.4 83 -6 -6 996.9 995.4 0.0
09 18.07 СЗ 6 10 км 10/8 300 м
[St Ac As]
-0.6 -2.4 88 -8 -8 1000.1 998.6
12 18.07 СЗ 4 6000 м в посл. час снег 6/6 210 м
[St Ac As]
-2.1 -4.6 83 -8 -8 1002.4 1000.9 -2.6 +1.4 0.9 1
15 18.07 ЮЗ 3 15 км 3/3 210 м
[St]
-2.3 -4.6 84 -7 -7 1003.6 1002.1
18 18.07 С 2 400 м туман 5/5 210 м
[St]
-4.0 -4.7 95 -8 -8 1003.7 1002.2
21 18.07 Ю 2 200 м туман 8/8 180 м
[St]
-4.5 -4.8 98 -9 -9 1002.7 1001.2
00 19.07 Ю 6 200 м туман 10/10 180 м
[St]
-7.2 -7.6 97 -15 -15 1000.8 999.3 -7.2 -2.0
03 19.07 Ю 6 5000 м в посл. час туман туман 10/10 240 м
[St]
-8.5 -9.4 93 -17 -17 997.3 995.8
06 19.07 Ю 6 10 км {туман} 5/1 300 м
[St Ac As]
-11.0 -12.5 89 -20 -20 994.9 993.4
09 19.07 Ю 9 10 км 4/0
[Cs]
-12.0 -13.6 88 -23 -23 992.5 991.0
12 19.07 Ю 7 7000 м дымка 8/5 240 м
[St Cs]
-13.7 -14.3 95 -24 -24 992.9 991.3 -14.0 -6.0
15 19.07 Ю 6 10 км в посл. час снег 10/10 210 м
[St]
-12.1 -12.6 96 -21 -21 992.6 991.0

 

Местоположение метеостанции Оркадас (Антарктида): широта -60.73 долгота -44.73 высота над уровнем моря 8 м.

В архиве по умолчанию представлена погода на Оркадасе за последнюю неделю. Архивные данные за месяц целиком и за предыдущие месяцы, начиная с января 2011 года, Вы можете получить, выбрав интересующий диапазон дат из раскрывающегося списка и нажав кнопку "Ввод!".


*Определитесь, кто Вы:
робот инопланетянин человек

Внимание! Время в таблицах - всемирное. Для получения местного времени необходимо прибавить поправку, которая равна 0 ч.

Смотрите также архив погоды в соседних городах и на ближайших метеорологических станциях:

Погода на Эсперансе (Антарктида) (703 км)
Погода на Марамбио (Антарктида) (727 км)
Погода на Бернардо О`Хиггинс (Антарктида) (743 км)
Погода на Carlini Base (Антарктида) (755 км)
Погода на King Sejong (Антарктида) (761 км)
Погода на Dinamet-Уругвай (Антарктида) (765 км)
Погода на Беллинсгаузене (Антарктида) (770 км)
Погода на Чанчэн (Антарктида) (772 км)
Погода на Frei Chi-Base (Антарктида) (773 км)
Погода на Captain Arturo Prat Base (Антарктида) (813 км)

Пояснения к столбцам:

Ветер - указаны скорость ветра в м/с - средняя за 10 мин, порывы в срок и между сроками (в фигурных скобках) и направление, откуда дует ветер: С - северный, СВ - северо-восточный, В - восточный, ЮВ - юго-восточный, Ю - южный, ЮЗ - юго-западный, З - западный, СЗ - северо-западный.
Видимость - горизонтальная дальность видимости в метрах или километрах. При видимости от 1 до 10 км при отсутствии осадков обычно наблюдается дымка, при ухудшении видимости до 1 км и менее - туман. В сухую погоду видимость может ухудшаться дымом, пылью или мглою.
Явления - указаны атмосферные явления, наблюдавшиеся в срок или в последний час перед сроком; фигурными скобками обозначены явления, наблюдавшиеся между сроками (за 1-3 часа до срока); квадратными скобками обозначены град или гололедные отложения с указанием их диаметра в мм.
Облачность - указаны через наклонную черту общая и нижняя облачность в баллах и высота нижней границы облаков в метрах; квадратными скобками обозначены формы облаков: Ci - перистые, Cs - перисто-слоистые, Cc - перисто-кучевые, Ac - высококучевые, As - высокослоистые, Sc - слоисто-кучевые, Ns - слоисто-дождевые, Cu - кучевые, Cb - кучево-дождевые. Подробнее классификацию облаков см. в Атласе облаков (PDF).
T - Температура воздуха - температура, измеренная на высоте 2 м над землей.
Td - Температура точки росы - температура, при понижении до которой содержащийся в воздухе водяной пар достигнет насыщения.
f - Относительная влажность воздуха - влажноcть воздуха, измеренная на высоте 2 м над землей.
Te - Эффективная температура - температура, которую ощущает одетый по сезону человек в тени. Характеристика душности погоды. При расчете учитывается влияние влажности воздуха и скорости ветра на теплоощущения человека.
Tes - Эффективная температура на солнце - температура, которую ощущает человек, с поправкой на солнечный нагрев. Характеристика знойности погоды. Зависит от высоты солнца над горизонтом, облачности и скорости ветра. Ночью, в пасмурную погоду, а также при ветре 12 м/с и более поправка равна нулю.
P - Атмосферное давление - приведенное к уровню моря атмосферное давление.
Po - Атмосферное давление - измеренное на уровне метеостанции атмосферное давление.
Tmin - Минимальная температура - минимум температуры воздуха на высоте 2 м над землей.
Tmax - Максимальная температура - максимум температуры воздуха на высоте 2 м над землей.
R - Количество осадков - Количество выпавших осадков за период времени, мм. При наведении курсора мыши на число - период времени, за который выпало указанное количество осадков.
R24 - Количество осадков - Количество выпавших осадков за 24 часа, мм.
S - Снежный покров - Высота снежного покрова, см. При наведении курсора мыши на число - состояние снежного покрова и степень покрытия местности в баллах.